Memphis, TN

8:58 AM CDT on October 19, 2017 (GMT -0500)
Memphis International

Weather History for KMEM - July, 2013

Change the Weather History Date:

Wednesday, July 3, 2013

  Actual Average Record
Temperature  
Mean Temperature 75 °F 82 °F  
Max Temperature 85 °F 91 °F 100 °F (1970)
Min Temperature 65 °F 73 °F 59 °F (1945)
Degree Days  
Heating Degree Days 0 0  
Month to date heating degree days 0 0  
Since 1 June heating degree days 0 0  
Since 1 July heating degree days 0 0  
Cooling Degree Days 10 17  
Month to date cooling degree days 29 51  
Year to date cooling degree days 764 810  
Since 1 June cooling degree days 479 489  
Growing Degree Days 24 (Base 50)    
Moisture  
Dew Point 62 °F    
Average Humidity 65    
Maximum Humidity 87    
Minimum Humidity 43    
Precipitation  
Precipitation 0.00 in 0.13 in 3.40 in (2015)
Month to date precipitation 0.01 0.40  
Year to date precipitation 40.06 28.31  
Snow  
Snow 0.00 in 0.00 in - ()
Month to date snowfall 0.0 0.0  
Since 1 June snowfall 0.0 0.0  
Since 1 July snowfall 0.0 0.0  
Snow Depth 0.00 in    
Sea Level Pressure  
Sea Level Pressure 30.05 in    
Wind  
Wind Speed 4 mph (North)    
Max Wind Speed 10 mph    
Max Gust Speed 16 mph    
Visibility 10 miles    
Events      
T = Trace of Precipitation, MM = Missing Value Source: NWS Daily Summary

Daily Weather History Graph

Daily Weather History Graph

Search for Another Location

Airport or City:

Trip Planner

Search our weather history database for the weather conditions in past years. The results will help you decide how hot, cold, wet, or windy it might be!

Date:

Astronomy

Jul. 03, 2013 Rise Set
Actual Time 5:50 AM CDT 8:17 PM CDT
Civil Twilight 5:20 AM CDT 8:47 PM CDT
Nautical Twilight 4:44 AM CDT 9:23 PM CDT
Astronomical Twilight 4:04 AM CDT 10:03 PM CDT
Moon 2:23 AM CDT (7/3) 4:31 PM CDT (7/3)
Length of Visible Light 15h 26m
Length of Day
14h 27m
Waning Crescent, 18% of the Moon is Illuminated
Jul 3
Waning Crescent
Jul 8
New
Jul 15
First Quarter
Jul 22
Full
Jul 29
Last Quarter

Hourly Weather History & Observations

Time (CDT) Temp. Heat Index Dew Point Humidity Pressure Visibility Wind Dir Wind Speed Gust Speed Precip Events Conditions
12:54 AM 69.1 °F - 62.1 °F 78% 30.04 in 10.0 mi North 4.6 mph - N/A   Partly Cloudy
1:54 AM 68.0 °F - 62.1 °F 81% 30.03 in 10.0 mi North 3.5 mph - N/A   Partly Cloudy
2:54 AM 66.9 °F - 62.1 °F 84% 30.02 in 10.0 mi North 3.5 mph - N/A   Scattered Clouds
3:54 AM 66.9 °F - 61.0 °F 81% 30.03 in 10.0 mi North 5.8 mph - N/A   Clear
4:54 AM 66.0 °F - 61.0 °F 84% 30.04 in 10.0 mi NNE 4.6 mph - N/A   Clear
5:54 AM 64.9 °F - 61.0 °F 87% 30.06 in 8.0 mi North 3.5 mph - N/A   Scattered Clouds
6:17 AM 64.4 °F - 60.8 °F 88% 30.07 in 8.0 mi North 3.5 mph - N/A   Scattered Clouds
6:54 AM 66.2 °F - 60.8 °F 83% 30.07 in 8.0 mi ENE 3.5 mph - N/A   Partly Cloudy
7:54 AM 69.1 °F - 62.1 °F 78% 30.10 in 9.0 mi NNE 3.5 mph - N/A   Partly Cloudy
8:54 AM 73.0 °F - 63.0 °F 71% 30.10 in 9.0 mi Calm Calm - N/A   Partly Cloudy
9:54 AM 75.0 °F - 63.0 °F 66% 30.09 in 10.0 mi Variable 3.5 mph - N/A   Scattered Clouds
10:25 AM 75.2 °F - 62.6 °F 65% 30.10 in 10.0 mi Calm Calm - N/A   Mostly Cloudy
10:54 AM 75.9 °F - 62.1 °F 62% 30.09 in 10.0 mi Calm Calm - N/A   Mostly Cloudy
11:20 AM 78.8 °F - 62.6 °F 57% 30.10 in 10.0 mi NW 5.8 mph - N/A   Mostly Cloudy
11:35 AM 78.8 °F - 62.6 °F 57% 30.09 in 10.0 mi Variable 4.6 mph - N/A   Scattered Clouds
11:54 AM 79.0 °F - 63.0 °F 58% 30.09 in 10.0 mi Variable 4.6 mph - N/A   Scattered Clouds
12:54 PM 79.0 °F - 63.0 °F 58% 30.08 in 10.0 mi West 6.9 mph - N/A   Scattered Clouds
1:54 PM 80.1 °F 80.9 °F 60.1 °F 50% 30.07 in 10.0 mi Calm Calm - N/A   Mostly Cloudy
2:45 PM 82.4 °F 82.9 °F 60.8 °F 48% 30.06 in 10.0 mi ENE 3.5 mph - N/A   Mostly Cloudy
2:54 PM 80.1 °F 80.9 °F 60.1 °F 50% 30.05 in 10.0 mi Variable 5.8 mph - N/A   Mostly Cloudy
3:54 PM 82.0 °F 82.0 °F 57.9 °F 44% 30.04 in 10.0 mi Calm Calm - N/A   Scattered Clouds
4:54 PM 82.9 °F 83.2 °F 60.1 °F 46% 30.02 in 10.0 mi Variable 4.6 mph - N/A   Scattered Clouds
5:54 PM 82.9 °F 83.3 °F 61.0 °F 47% 30.02 in 10.0 mi SSW 4.6 mph - N/A   Scattered Clouds
6:54 PM 81.0 °F 81.7 °F 61.0 °F 50% 30.01 in 10.0 mi NW 6.9 mph - N/A   Scattered Clouds
7:54 PM 79.0 °F - 61.0 °F 54% 30.02 in 10.0 mi WNW 5.8 mph - N/A   Mostly Cloudy
8:54 PM 75.9 °F - 62.1 °F 62% 30.02 in 10.0 mi NNW 8.1 mph - N/A   Scattered Clouds
9:54 PM 75.0 °F - 62.1 °F 64% 30.03 in 10.0 mi NNE 5.8 mph - N/A   Clear
10:54 PM 75.0 °F - 63.0 °F 66% 30.04 in 10.0 mi Variable 5.8 mph - N/A   Clear
11:54 PM 72.0 °F - 63.0 °F 73% 30.04 in 10.0 mi NE 5.8 mph - N/A   Partly Cloudy